Location: Unspecified
(0.0000°N, 0.0000°E)
Time: 21:49:21
(UTC+00:00)

PUNCH-WFI02 - Visible Passes

Search period start: 29 April 2025 00:00
Search period end: 09 May 2025 00:00
Orbit: 642 x 658 km, 98.0° (Epoch: 28 April)

Date Brightness Start Highest point End Pass type
(mag) Time Alt. Az. Time Alt. Az. Time Alt. Az.
29 Apr ? 18:23:27 10° NNW 18:27:30 35° WNW 18:31:37 10° SW visible
30 Apr ? 05:01:51 10° ESE 05:04:29 15° ENE 05:07:06 10° NE visible
30 Apr ? 18:51:29 10° NW 18:54:06 15° WNW 18:56:44 10° WSW visible
01 May ? 05:26:58 10° SE 05:31:03 35° ENE 05:35:07 10° NNE visible
03 May ? 18:33:42 10° NNW 18:37:23 26° WNW 18:41:08 10° SW visible
04 May ? 05:10:59 10° SE 05:14:20 21° ENE 05:17:41 10° NNE visible
04 May ? 19:02:44 10° WNW 19:03:57 11° WNW 19:05:12 10° W visible
06 May ? 18:16:24 10° N 18:20:40 43° WNW 18:24:57 10° SSW visible
07 May ? 04:55:46 10° ESE 04:57:36 12° ENE 04:59:26 10° NE visible
07 May ? 18:44:04 10° NNW 18:47:14 19° WNW 18:50:25 10° WSW visible
08 May ? 05:20:20 10° SE 05:24:10 28° ENE 05:27:58 10° NNE visible
